Tracking 18957 objects as of 22-Jan-2018
HD Live streaming from Space Station
objects crossing your sky now

COSMOS 2216

Track COSMOS 2216 now!
10-day predictions
COSMOS 2216 is classified as:


NORAD ID: 22187
Int'l Code: 1992-068F
Perigee: 1,416.6 km
Apogee: 1,422.9 km
Inclination: 82.6 °
Period: 114.1 minutes
Semi major axis: 7790 km
RCS: 1.0724 m2 (large)
Launch date: October 20, 1992
Source: Commonwealth of Independent States (former USSR) (CIS)
Launch site: PLESETSK MISSILE AND SPACE COMPLEX (PKMTR)
aabbcc
Your satellite tracking list
Your tracking list is empty




NASA's NSSDC Master Catalog

Two Line Element Set (TLE):
1 22187U 92068F   18021.56903981 +.00000039 +00000-0 +15599-3 0  9992
2 22187 082.5976 138.0699 0004045 246.9926 113.0738 12.62504469163660
Source of the keplerian elements: AFSPC